Date String (YYYY-MM-DD hh:mm:ss) UTC,Instrument flags,Ambient pressure (hPa),Sample flow (lpm),Bypass flow (lpm),Sample temperature (°C),Ambient temperature (°C),ASC tube jacket temperature (°C),LED temperature (°C),Box temperature (°C),Sample RH (%),Span deviation,Mass concentration (μg/m³),Mass concentration (μg/m³),Mass concentration (μg/m³)
DateTimeUTC,F1_M11,P_M11,Q1_M11,Q2_M11,T1_M11,T2_M11,T3_M11,T4_M11,T5_M11,U1_M11,ZSPAN_M11,X0_M11,X2_M11,X1_M11
2022-04-15 13:00:00,,0816.2,5.00,0.00,22.8,22.0,00.0,31.7,24.6,10.2,0000.0,0012.33,0004.66,0003.19
2022-04-15 13:01:00,,0816.3,5.00,0.00,22.8,22.0,00.0,31.7,24.6,10.1,0000.0,0011.63,0004.56,0003.18
2022-04-15 13:02:00,,0816.3,4.99,0.00,22.8,22.0,00.0,31.7,24.6,10.0,0000.0,0012.01,0004.59,0003.17
2022-04-15 13:03:00,,0816.2,4.99,0.00,22.8,22.0,00.0,31.7,24.6,10.2,0000.0,0012.13,0004.63,0003.17
2022-04-15 13:04:00,,0816.4,5.00,0.00,22.8,22.0,00.0,31.7,24.6,10.5,0000.0,0012.03,0004.61,0003.15
2022-04-15 13:05:00,,0816.3,4.99,0.00,22.8,22.0,00.0,31.7,24.6,10.4,0000.0,0012.56,0004.52,0003.12
2022-04-15 13:06:00,,0816.2,5.00,0.00,22.8,22.0,00.0,31.7,24.6,10.4,0000.0,0012.61,0004.48,0003.12
2022-04-15 13:07:00,,0816.3,5.00,0.00,22.8,22.0,00.0,31.7,24.5,10.3,0000.0,0013.02,0004.48,0003.14
2022-04-15 13:08:00,,0816.3,5.00,0.00,22.7,21.9,00.0,31.7,24.5,10.2,0000.0,0013.01,0004.54,0003.15
2022-04-15 13:09:00,,0816.3,5.02,0.00,22.8,21.9,00.0,31.7,24.5,10.4,0000.0,0013.27,0004.54,0003.15
2022-04-15 13:10:00,,0816.5,5.00,0.00,22.7,21.9,00.0,31.7,24.5,10.6,0000.0,0013.16,0004.53,0003.13
2022-04-15 13:11:00,,0816.4,5.00,0.00,22.7,21.9,00.0,31.7,24.5,10.7,0000.0,0013.58,0004.51,0003.12
2022-04-15 13:12:00,,0816.5,4.99,0.00,22.7,21.8,00.0,31.7,24.4,11.3,0000.0,0013.36,0004.48,0003.05
2022-04-15 13:13:00,,0816.4,5.00,0.00,22.7,21.8,00.0,31.7,24.4,11.9,0000.0,0012.73,0004.40,0002.93
2022-04-15 13:14:00,,0816.4,4.99,0.00,22.6,21.8,00.0,31.7,24.3,11.4,0000.0,0012.42,0004.31,0002.84
2022-04-15 13:15:00,,0816.4,4.99,0.00,22.6,21.8,00.0,31.7,24.4,11.1,0000.0,0013.39,0004.32,0002.84
2022-04-15 13:16:00,,0816.5,5.00,0.00,22.6,21.7,00.0,31.6,24.3,10.5,0000.0,0012.86,0004.36,0002.90
2022-04-15 13:17:00,,0816.4,5.00,0.00,22.6,21.7,00.0,31.6,24.3,10.4,0000.0,0012.48,0004.47,0003.01
2022-04-15 13:18:00,,0816.5,5.00,0.00,22.5,21.7,00.0,31.6,24.2,10.4,0000.0,0012.63,0004.61,0003.09
2022-04-15 13:19:00,,0816.5,5.00,0.00,22.5,21.6,00.0,31.6,24.2,10.7,0000.0,0012.29,0004.66,0003.14
2022-04-15 13:20:00,,0816.6,5.00,0.00,22.5,21.6,00.0,31.6,24.2,10.8,0000.0,0012.04,0004.70,0003.16
2022-04-15 13:21:00,,0816.8,4.99,0.00,22.5,21.7,00.0,31.6,24.3,11.2,0000.0,0012.07,0004.77,0003.19
2022-04-15 13:22:00,,0816.5,5.00,0.00,22.5,21.7,00.0,31.6,24.3,12.1,0000.0,0011.60,0004.72,0003.17
2022-04-15 13:23:00,,0816.4,5.01,0.00,22.5,21.7,00.0,31.6,24.3,11.9,0000.0,0011.24,0004.72,0003.17
2022-04-15 13:24:00,,0816.5,5.00,0.00,22.5,21.7,00.0,31.6,24.3,11.6,0000.0,0011.42,0004.80,0003.22
2022-04-15 13:25:00,,0816.5,5.01,0.00,22.5,21.7,00.0,31.5,24.3,11.6,0000.0,0012.80,0004.86,0003.27
2022-04-15 13:26:00,,0816.5,5.00,0.00,22.5,21.7,00.0,31.5,24.3,11.7,0000.0,0013.33,0004.96,0003.34
2022-04-15 13:27:00,,0816.4,5.00,0.00,22.5,21.7,00.0,31.5,24.3,12.0,0000.0,0013.03,0004.92,0003.32
2022-04-15 13:28:00,,0816.6,4.99,0.00,22.5,21.7,00.0,31.5,24.3,11.7,0000.0,0013.08,0004.88,0003.29
2022-04-15 13:29:00,,0816.6,5.00,0.00,22.5,21.7,00.0,31.5,24.3,11.5,0000.0,0013.18,0004.82,0003.28
2022-04-15 13:30:00,,0816.5,5.01,0.00,22.5,21.7,00.0,31.5,24.3,12.0,0000.0,0013.58,0004.82,0003.26
2022-04-15 13:31:00,,0816.5,5.00,0.00,22.5,21.7,00.0,31.5,24.3,11.7,0000.0,0013.72,0004.77,0003.23
2022-04-15 13:32:00,,0816.5,4.99,0.00,22.5,21.7,00.0,31.5,24.3,11.6,0000.0,0014.04,0004.77,0003.26
2022-04-15 13:33:00,,0816.4,5.00,0.00,22.5,21.7,00.0,31.5,24.2,12.0,0000.0,0014.51,0004.85,0003.30
2022-04-15 13:34:00,,0816.4,5.00,0.00,22.5,21.6,00.0,31.5,24.2,12.4,0000.0,0014.93,0004.82,0003.30
2022-04-15 13:35:00,,0816.6,5.00,0.00,22.5,21.6,00.0,31.5,24.2,12.1,0000.0,0015.13,0004.76,0003.28
2022-04-15 13:36:00,,0816.7,5.00,0.00,22.5,21.6,00.0,31.5,24.2,11.7,0000.0,0014.94,0004.88,0003.32
2022-04-15 13:37:00,,0816.6,5.00,0.00,22.5,21.6,00.0,31.5,24.3,11.7,0000.0,0014.01,0004.93,0003.34
2022-04-15 13:38:00,,0816.6,4.99,0.00,22.5,21.6,00.0,31.5,24.3,11.5,0000.0,0015.18,0005.01,0003.42
2022-04-15 13:39:00,,0816.8,5.00,0.00,22.5,21.7,00.0,31.5,24.3,11.5,0000.0,0015.82,0005.04,0003.48
2022-04-15 13:40:00,,0816.7,5.00,0.00,22.5,21.7,00.0,31.5,24.3,11.7,0000.0,0016.09,0005.08,0003.49
2022-04-15 13:41:00,,0817.0,5.01,0.00,22.5,21.7,00.0,31.5,24.3,11.5,0000.0,0015.84,0005.05,0003.49
2022-04-15 13:42:00,,0817.1,4.99,0.00,22.5,22.2,00.0,31.5,24.4,11.4,0000.0,0015.64,0005.16,0003.58
2022-04-15 13:43:00,,0817.1,5.02,0.00,22.7,23.2,00.0,31.5,24.7,11.4,0000.0,0015.28,0005.14,0003.60
2022-04-15 13:44:00,,0817.0,5.00,0.00,22.8,23.5,00.0,31.6,24.8,11.2,0000.0,0016.27,0005.18,0003.65
2022-04-15 13:45:00,,0817.0,5.00,0.00,22.9,23.3,00.0,31.6,24.9,11.2,0000.0,0016.55,0005.31,0003.74
2022-04-15 13:46:00,,0817.1,4.99,0.00,22.9,23.1,00.0,31.6,24.8,11.1,0000.0,0017.09,0005.48,0003.87
2022-04-15 13:47:00,,0817.1,5.00,0.00,22.9,22.9,00.0,31.6,24.8,11.1,0000.0,0017.10,0005.60,0003.93
2022-04-15 13:48:00,,0817.0,4.99,0.00,22.9,22.8,00.0,31.7,24.8,11.2,0000.0,0017.42,0005.55,0003.96
2022-04-15 13:49:00,,0817.1,5.00,0.00,22.9,22.7,00.0,31.7,24.8,11.1,0000.0,0017.45,0005.60,0003.99
2022-04-15 13:50:00,,0817.1,5.00,0.00,22.9,22.6,00.0,31.7,24.8,11.1,0000.0,0017.93,0005.64,0004.01
2022-04-15 13:51:00,,0817.0,4.99,0.00,22.9,22.5,00.0,31.7,24.8,11.1,0000.0,0017.47,0005.73,0004.05
2022-04-15 13:52:00,,0817.2,5.01,0.00,22.9,22.4,00.0,31.7,24.8,11.2,0000.0,0017.60,0005.82,0004.09
2022-04-15 13:53:00,,0817.1,5.00,0.00,22.9,22.3,00.0,31.7,24.8,11.1,0000.0,0017.78,0005.82,0004.10
2022-04-15 13:54:00,,0817.4,5.00,0.00,22.9,22.3,00.0,31.7,24.8,10.9,0000.0,0017.80,0005.86,0004.12
2022-04-15 13:55:00,,0817.4,4.99,0.00,22.9,22.2,00.0,31.8,24.8,11.0,0000.0,0017.33,0005.96,0004.14
2022-04-15 13:56:00,,0817.4,5.00,0.00,22.9,22.2,00.0,31.8,24.8,10.9,0000.0,0016.34,0005.99,0004.14
2022-04-15 13:57:00,,0817.4,5.00,0.00,22.9,22.2,00.0,31.8,24.8,10.9,0000.0,0016.46,0005.99,0004.14
2022-04-15 13:58:00,,0817.5,5.00,0.00,22.9,22.2,00.0,31.8,24.7,10.8,0000.0,0016.22,0005.99,0004.13
2022-04-15 13:59:00,,0817.4,4.99,0.00,22.9,22.2,00.0,31.8,24.7,10.7,0000.0,0015.73,0006.02,0004.14
